Lafayette, CO

8:36 AM MST on February 07, 2016 (GMT -0700)
Erie Municipal Airport

Weather History for KEIK - November, 2013

Change the Weather History Date:

Friday, November 1, 2013

  Actual Average (KBDU) Record (KBDU)
Temperature  
Mean Temperature 42 °F -  
Max Temperature 52 °F - 73 °F (2015)
Min Temperature 31 °F - 33 °F (2013)
Degree Days  
Heating Degree Days 24    
Month to date heating degree days  
Cooling Degree Days 0    
Month to date cooling degree days  
Moisture  
Dew Point 28 °F    
Average Humidity 59    
Maximum Humidity 87    
Minimum Humidity 32    
Precipitation  
Precipitation 0.00 in - 0.00 in (2016)
Sea Level Pressure  
Sea Level Pressure 30.10 in    
Wind  
Wind Speed 4 mph (East)    
Max Wind Speed 12 mph    
Max Gust Speed 20 mph    
Visibility 10 miles    
Events      
T = Trace of Precipitation, MM = Missing Value Source: NWS Daily Summary

Daily Weather History Graph

Daily Weather History Graph

Search for Another Location

Airport or City:

Trip Planner

Search our weather history database for the weather conditions in past years. The results will help you decide how hot, cold, wet, or windy it might be!

Date:

Astronomy

Nov. 01, 2013 Rise Set
Actual Time 7:29 AM MDT 5:57 PM MDT
Civil Twilight 7:01 AM MDT 6:25 PM MDT
Nautical Twilight 6:29 AM MDT 6:57 PM MDT
Astronomical Twilight 5:57 AM MDT 7:29 PM MDT
Moon 5:24 AM MDT (11/1) 4:51 PM MDT (11/1)
Length of Visible Light 11h 24m
Length of Day
10h 27m
Waning Crescent, 4% of the Moon is Illuminated
Nov 1
Waning Crescent
Nov 3
New
Nov 9
First Quarter
Nov 17
Full
Nov 25
Last Quarter

Hourly Weather History & Observations

Time (MDT) Temp. Windchill Dew Point Humidity Pressure Visibility Wind Dir Wind Speed Gust Speed Precip Events Conditions
12:14 AM 45.7 °F 41.5 °F 24.6 °F 44% 29.90 in 10.0 mi West 8.1 mph - N/A   Clear
12:34 AM 43.0 °F 41.3 °F 25.3 °F 50% 29.90 in 10.0 mi North 3.5 mph - N/A   Clear
12:54 AM 43.9 °F 42.3 °F 24.6 °F 47% 29.90 in 10.0 mi WNW 3.5 mph - N/A   Clear
1:14 AM 45.7 °F 40.2 °F 25.2 °F 45% 29.91 in 10.0 mi WNW 11.5 mph 19.6 mph N/A   Clear
1:34 AM 44.2 °F 40.3 °F 26.4 °F 50% 29.92 in 10.0 mi WNW 6.9 mph - N/A   Clear
1:54 AM 44.1 °F 39.5 °F 26.8 °F 51% 29.93 in 10.0 mi West 8.1 mph - N/A   Clear
2:14 AM 44.2 °F 40.3 °F 27.5 °F 52% 29.93 in 10.0 mi WNW 6.9 mph - N/A   Scattered Clouds
2:34 AM 41.4 °F 39.4 °F 28.6 °F 60% 29.94 in 10.0 mi NNE 3.5 mph - N/A   Mostly Cloudy
2:54 AM 41.7 °F - 28.8 °F 60% 29.94 in 10.0 mi Calm Calm - N/A   Scattered Clouds
3:14 AM 39.7 °F - 29.1 °F 66% 29.95 in 10.0 mi Calm Calm - N/A   Scattered Clouds
3:34 AM 36.9 °F - 29.1 °F 74% 29.96 in 10.0 mi Calm Calm - N/A   Scattered Clouds
3:54 AM 37.8 °F - 28.6 °F 69% 29.97 in 10.0 mi Calm Calm - N/A   Scattered Clouds
4:14 AM 36.1 °F - 28.8 °F 75% 29.98 in 10.0 mi Calm Calm - N/A   Mostly Cloudy
4:34 AM 35.6 °F - 28.4 °F 75% 29.98 in 10.0 mi Calm Calm - N/A   Scattered Clouds
4:54 AM 35.1 °F - 27.7 °F 74% 29.98 in 10.0 mi Calm Calm - N/A   Clear
5:14 AM 32.5 °F 28.1 °F 28.8 °F 86% 29.99 in 10.0 mi SSW 4.6 mph - N/A   Clear
5:34 AM 32.0 °F 28.7 °F 28.2 °F 86% 30.00 in 10.0 mi SW 3.5 mph - N/A   Clear
5:54 AM 32.0 °F 27.5 °F 28.4 °F 87% 30.01 in 10.0 mi SW 4.6 mph - N/A   Clear
6:14 AM 31.8 °F 25.4 °F 28.0 °F 86% 30.02 in 10.0 mi SSW 6.9 mph - N/A   Clear
6:34 AM 32.0 °F 28.7 °F 28.2 °F 86% 30.03 in 10.0 mi SE 3.5 mph - N/A   Scattered Clouds
6:54 AM 36.5 °F 29.7 °F 29.8 °F 77% 30.05 in 10.0 mi East 9.2 mph - N/A   Mostly Cloudy
7:14 AM 35.6 °F 32.8 °F 29.5 °F 78% 30.05 in 10.0 mi East 3.5 mph - N/A   Scattered Clouds
7:34 AM 36.1 °F 33.5 °F 29.7 °F 77% 30.06 in 10.0 mi SE 3.5 mph - N/A   Scattered Clouds
7:54 AM 34.0 °F 31.0 °F 30.0 °F 85% 30.08 in 10.0 mi East 3.5 mph - N/A   Scattered Clouds
8:14 AM 35.6 °F - 30.7 °F 82% 30.09 in 10.0 mi Calm Calm - N/A   Scattered Clouds
8:34 AM 36.9 °F - 31.8 °F 82% 30.10 in 10.0 mi Calm Calm - N/A   Scattered Clouds
8:54 AM 39.4 °F - 32.2 °F 75% 30.12 in 10.0 mi Calm Calm - N/A   Scattered Clouds
9:14 AM 39.0 °F - 32.0 °F 76% 30.13 in 10.0 mi Calm Calm - N/A   Scattered Clouds
9:34 AM 41.2 °F - 32.5 °F 71% 30.14 in 10.0 mi Calm Calm - N/A   Scattered Clouds
9:54 AM 42.6 °F - 32.9 °F 68% 30.14 in 10.0 mi Calm Calm - N/A   Scattered Clouds
10:14 AM 43.7 °F 40.3 °F 32.9 °F 66% 30.15 in 10.0 mi NE 5.8 mph - N/A   Mostly Cloudy
10:34 AM 43.7 °F 39.7 °F 33.1 °F 66% 30.15 in 10.0 mi NNE 6.9 mph - N/A   Overcast
10:54 AM 45.0 °F 43.5 °F 32.7 °F 62% 30.15 in 10.0 mi NNE 3.5 mph - N/A   Overcast
11:14 AM 45.3 °F 42.3 °F 31.6 °F 59% 30.16 in 10.0 mi North 5.8 mph - N/A   Overcast
11:34 AM 46.0 °F 44.8 °F 31.1 °F 56% 30.16 in 10.0 mi North 3.5 mph - N/A   Overcast
11:54 AM 46.0 °F 41.9 °F 30.2 °F 54% 30.17 in 10.0 mi NNE 8.1 mph - N/A   Overcast
12:14 PM 47.8 °F - 30.4 °F 51% 30.16 in 10.0 mi North 6.9 mph - N/A   Overcast
12:34 PM 46.9 °F - 28.6 °F 49% 30.16 in 10.0 mi NNW 4.6 mph - N/A   Overcast
12:54 PM 49.5 °F - 28.0 °F 44% 30.16 in 10.0 mi North 5.8 mph - N/A   Overcast
1:14 PM 50.4 °F - 29.3 °F 44% 30.15 in 10.0 mi North 5.8 mph - N/A   Mostly Cloudy
1:34 PM 49.8 °F - 27.5 °F 42% 30.15 in 10.0 mi Calm Calm - N/A   Mostly Cloudy
1:54 PM 51.1 °F - 27.3 °F 40% 30.14 in 10.0 mi Calm Calm - N/A   Mostly Cloudy
2:14 PM 50.7 °F - 27.0 °F 40% 30.14 in 10.0 mi Calm Calm - N/A   Mostly Cloudy
2:34 PM 52.2 °F - 27.3 °F 38% 30.14 in 10.0 mi SSW 4.6 mph - N/A   Overcast
2:54 PM 52.3 °F - 27.5 °F 38% 30.14 in 10.0 mi SSE 3.5 mph - N/A   Scattered Clouds
3:14 PM 52.3 °F - 27.3 °F 38% 30.14 in 10.0 mi SE 6.9 mph - N/A   Scattered Clouds
3:34 PM 52.7 °F - 27.5 °F 38% 30.15 in 10.0 mi SSE 6.9 mph - N/A   Mostly Cloudy
3:54 PM 52.3 °F - 26.1 °F 36% 30.15 in 10.0 mi Calm Calm - N/A   Scattered Clouds
4:14 PM 51.8 °F - 24.6 °F 35% 30.15 in 10.0 mi West 3.5 mph - N/A   Clear
4:34 PM 52.2 °F - 24.1 °F 34% 30.15 in 10.0 mi Calm Calm - N/A   Clear
4:54 PM 52.2 °F - 24.3 °F 34% 30.15 in 10.0 mi Calm Calm - N/A   Clear
5:14 PM 51.4 °F - 21.9 °F 32% 30.15 in 10.0 mi Calm Calm - N/A   Clear
5:34 PM 50.9 °F - 23.0 °F 34% 30.15 in 10.0 mi SSE 3.5 mph - N/A   Clear
5:54 PM 47.5 °F - 25.9 °F 43% 30.15 in 10.0 mi ESE 5.8 mph - N/A   Clear
6:14 PM 42.8 °F 41.1 °F 29.1 °F 58% 30.16 in 10.0 mi SE 3.5 mph - N/A   Clear
6:34 PM 41.9 °F 38.2 °F 28.4 °F 59% 30.17 in 10.0 mi ESE 5.8 mph - N/A   Clear
6:54 PM 41.2 °F - 28.4 °F 60% 30.18 in 10.0 mi Calm Calm - N/A   Clear
7:14 PM 40.6 °F - 27.1 °F 59% 30.18 in 10.0 mi Calm Calm - N/A   Clear
7:34 PM 37.8 °F - 28.4 °F 69% 30.19 in 10.0 mi Calm Calm - N/A   Clear
7:54 PM 37.2 °F - 27.5 °F 68% 30.19 in 10.0 mi Calm Calm - N/A   Clear
8:14 PM 34.7 °F - 26.6 °F 72% 30.20 in 10.0 mi Calm Calm - N/A   Clear
8:34 PM 35.1 °F - 27.0 °F 72% 30.20 in 10.0 mi Calm Calm - N/A   Clear
8:54 PM 33.6 °F - 27.7 °F 79% 30.20 in 10.0 mi Calm Calm - N/A   Clear
9:14 PM 34.7 °F - 26.6 °F 72% 30.20 in 10.0 mi Calm Calm - N/A   Clear
9:34 PM 39.6 °F 32.5 °F 25.7 °F 58% 30.20 in 10.0 mi SE 11.5 mph - N/A   Clear
9:54 PM 39.0 °F 34.0 °F 25.0 °F 57% 30.21 in 10.0 mi ESE 6.9 mph - N/A   Clear
10:14 PM 39.6 °F 32.5 °F 24.3 °F 54% 30.21 in 10.0 mi ESE 11.5 mph - N/A   Clear
10:34 PM 40.1 °F 33.2 °F 23.9 °F 52% 30.21 in 10.0 mi SE 11.5 mph - N/A   Clear
10:54 PM 40.1 °F 34.1 °F 23.4 °F 51% 30.21 in 10.0 mi SE 9.2 mph - N/A   Clear
11:14 PM 39.6 °F 35.4 °F 23.0 °F 52% 30.21 in 10.0 mi ESE 5.8 mph - N/A   Clear
11:34 PM 40.3 °F 34.9 °F 23.0 °F 50% 30.21 in 10.0 mi SE 8.1 mph - N/A   Clear
11:54 PM 36.3 °F - 24.3 °F 62% 30.22 in 10.0 mi Calm Calm - N/A   Clear